Helicity
-4 -37 -13 -47 -9 -65 131 71 71 81 61 39 31 3 102 106 89 101 105 42 32 41 33 18 27 1 7 13 29 31 43 63 78 83 71 75 82 82 79 81 77 80 80 78 77 74 69 68 62
15 -12 -29 -41 -36 -15 81 34 26 79 71 20 12 -8 30 74 66 54 49 45 40 24 20 14 29 46 24 26 21 23 33 51 65 83 91 83 72 65 75 79 75 65 61 57 60 67 59 57 51
-9 -24 -21 -32 -67 46 100 -2 106 51 19 -6 36 37 12 64 66 112 65 27 17 10 24 31 34 36 32 25 29 30 42 64 80 85 77 59 53 52 52 56 67 72 61 56 68 76 76 65 51
-16 -29 -25 -88 100 73 32 66 44 32 22 -10 23 74 53 52 46 64 32 20 19 10 31 22 24 34 40 43 51 63 69 57 53 45 31 34 20 33 45 60 62 67 70 78 78 77 73 62 54
-65 -80 -53 22 74 32 34 37 -3 -0 26 19 -25 80 78 74 72 35 33 20 20 24 31 32 40 43 37 34 42 45 55 64 65 61 64 55 51 55 60 63 63 59 60 62 59 61 61 51 40
-60 -78 4 44 39 28 29 18 -9 8 14 40 -5 38 62 39 52 41 27 30 23 38 38 22 17 15 20 24 51 59 57 42 38 50 47 44 48 53 58 65 62 55 56 50 49 43 38 34 32
-62 -67 34 75 35 31 50 1 -16 4 16 5 12 31 39 29 16 -8 -5 21 28 29 24 22 33 35 30 32 33 32 24 29 37 37 36 37 45 52 55 59 58 52 47 39 32 28 27 23 25
14 8 54 33 3 71 54 -2 16 -17 46 49 38 28 15 28 5 -5 -0 20 20 12 36 47 19 29 26 43 31 26 30 34 34 35 32 25 24 28 32 46 70 61 52 44 32 25 20 13 11
-45 -25 29 13 11 50 32 20 6 49 28 25 19 66 37 60 18 16 14 24 26 24 58 23 27 13 4 14 25 31 27 32 31 34 28 20 26 41 57 106 84 67 57 37 17 9 1 -16 -25
-64 -19 68 34 28 36 16 1 -4 35 9 17 2 12 47 35 27 35 37 36 28 39 33 37 16 17 1 3 8 25 22 26 27 39 32 34 57 60 47 59 57 29 30 34 9 5 -5 -4 46
-27 57 93 41 25 11 -1 17 17 24 10 -23 -3 6 60 45 36 41 25 30 30 36 20 38 19 -0 -18 1 -21 -1 2 18 21 18 25 32 35 56 44 60 61 69 52 39 49 48 41 84 54
48 58 34 17 10 33 11 -4 3 33 7 -8 -8 41 68 38 35 36 10 38 19 39 27 19 18 5 -6 -27 -13 -7 -1 23 14 49 27 41 34 48 51 46 56 51 67 64 45 45 59 38 36
51 10 16 -10 -6 23 28 4 21 1 11 25 -1 41 50 51 42 37 10 -0 24 30 27 35 36 9 10 4 1 6 2 32 35 42 56 43 38 48 26 35 26 35 37 41 47 44 45 48 32
13 -5 -9 -6 -9 -1 21 -15 4 31 3 14 26 8 35 23 26 31 3 10 30 18 48 42 33 31 31 18 36 32 42 43 46 55 80 58 45 47 13 33 20 15 30 53 55 53 51 42 44
-4 -7 -22 -8 -7 2 21 7 27 62 26 12 24 11 11 30 24 32 15 11 8 19 15 75 28 77 52 50 63 61 85 41 43 48 56 53 45 43 36 27 25 24 41 45 48 61 62 58 51
16 21 10 19 23 14 28 53 79 28 16 18 25 14 13 29 28 39 33 20 13 -7 36 47 56 111 73 96 94 101 88 44 27 45 65 69 55 54 45 42 41 50 72 62 70 69 76 80 84
13 38 -1 46 28 20 11 49 82 39 4 -4 -8 41 36 10 34 46 28 15 8 15 14 44 109 88 106 120 100 116 86 32 55 65 87 132 73 108 81 66 60 77 83 91 75 68 71 79 83
39 2 15 21 68 -7 3 4 82 58 22 32 14 6 24 19 39 45 63 18 11 24 40 28 112 82 139 135 132 97 86 64 73 116 167 135 106 136 103 93 93 88 82 100 96 101 77 82 91
77 29 29 74 62 42 50 40 95 59 60 71 56 57 56 32 75 149 128 124 108 96 76 57 213 258 112 129 158 164 120 124 141 146 194 163 199 117 108 103 146 136 115 110 88 77 81 107 96
23 19 40 40 40 47 40 56 81 86 108 110 108 104 118 151 182 181 158 143 190 217 297 279 254 195 181 202 263 162 131 156 124 137 176 97 133 75 87 151 170 129 120 95 84 79 102 114 128
36 66 61 62 27 7 13 65 84 94 102 119 181 189 159 173 173 165 161 163 137 130 150 203 229 237 263 257 217 214 155 152 178 209 143 128 89 101 125 131 144 127 105 97 105 118 126 140 144
34 61 32 18 12 5 23 48 144 138 139 140 159 170 159 143 140 138 128 118 120 151 193 225 247 240 223 265 227 153 136 169 175 112 102 136 76 131 126 135 123 109 66 67 85 138 206 177 157
100 40 24 22 21 41 37 20 183 93 136 140 188 162 151 169 161 146 122 113 127 139 177 193 187 200 170 151 86 42 111 105 91 112 199 156 138 164 145 126 116 72 37 67 97 130 143 158 180
24 15 15 16 40 63 106 51 75 95 191 146 137 141 160 172 130 106 88 79 121 165 162 137 134 123 75 15 36 95 159 142 150 147 161 200 184 151 138 119 115 51 41 117 161 159 238 318 204
15 5 37 47 53 60 95 40 157 171 148 184 124 131 136 135 104 74 65 116 165 141 109 88 74 75 84 156 135 117 106 118 119 159 198 175 141 140 118 117 76 76 120 162 256 283 279 273 243
16 21 55 59 76 71 68 41 149 135 113 125 125 115 100 108 87 84 86 108 124 120 99 98 68 69 83 117 134 124 134 154 191 225 159 101 93 93 100 75 104 135 209 227 227 234 253 227 177
27 36 27 38 52 47 50 94 91 109 82 113 97 65 93 93 98 95 80 70 97 108 100 93 46 58 110 174 176 182 170 178 174 138 78 107 85 79 108 117 127 171 235 293 234 165 138 103 80
16 37 17 46 55 55 74 38 118 93 62 114 29 70 57 38 42 85 67 85 88 108 123 97 99 115 169 218 233 236 167 151 130 110 108 109 106 134 138 160 189 204 221 164 122 100 76 68 72
50 44 45 54 89 86 86 67 131 150 160 141 89 51 52 37 67 50 79 110 114 129 126 162 196 252 202 185 194 140 155 140 136 104 135 201 152 109 139 167 144 127 122 84 78 86 57 71 74
60 95 93 82 100 104 92 64 146 116 95 22 31 74 87 70 41 60 76 137 154 166 208 221 259 119 129 124 141 137 132 107 115 192 202 133 129 132 97 88 93 58 70 68 66 85 103 99 109
Wind_Speed
37 25 26 26 30 31 21 27 20 22 24 28 27 36 35 37 41 32 23 26 26 26 27 26 26 26 27 29 30 33 35 36 37 35 33 36 38 41 42 43 44 45 46 46 47 49 50 52 52
34 23 21 29 37 21 18 17 14 24 25 27 29 30 35 37 35 26 22 26 28 29 31 30 29 29 28 30 31 32 33 34 35 35 37 37 38 39 43 45 45 46 48 48 47 47 49 49 47
23 24 36 26 26 19 20 14 20 21 24 24 27 36 35 31 29 27 27 28 31 31 31 31 32 32 32 31 31 31 31 33 34 35 36 33 35 37 41 41 43 44 43 44 47 49 51 49 44
15 17 29 24 16 23 13 17 19 19 22 25 26 32 33 33 29 29 30 30 32 33 33 33 33 32 32 31 32 32 32 31 32 31 31 33 33 39 41 44 45 46 47 49 49 50 51 52 51
12 26 20 15 13 20 19 19 17 16 21 23 28 28 29 31 30 30 29 31 33 32 33 32 31 33 34 34 33 32 32 33 35 35 37 38 40 41 41 43 46 46 47 49 50 51 50 51 51
18 27 13 11 13 17 21 21 22 22 23 28 26 30 32 31 32 27 29 32 32 32 30 35 37 35 34 33 35 35 36 35 36 37 38 38 39 40 41 43 44 46 48 49 51 51 50 50 51
35 12 9 12 14 17 19 21 22 22 23 27 25 25 30 41 43 49 46 40 38 35 38 37 34 33 34 35 34 35 34 34 36 36 37 37 37 38 39 40 42 45 46 47 48 48 49 48 49
37 20 11 12 12 18 20 21 24 22 27 23 28 24 47 49 48 47 47 41 37 37 34 30 30 32 32 33 35 35 34 34 33 35 35 34 31 35 36 36 43 45 47 49 51 51 49 47 45
24 11 13 17 18 19 19 21 23 29 24 35 37 18 35 44 43 42 42 38 34 32 26 26 28 32 33 35 35 32 32 30 31 31 34 30 29 37 36 42 43 43 43 44 44 48 49 44 33
18 22 15 23 25 17 18 17 21 43 39 42 43 30 32 42 42 39 38 35 32 27 24 25 27 30 31 34 35 34 34 34 36 40 40 38 43 41 43 37 39 38 39 40 36 42 47 41 55
21 20 15 20 24 26 32 35 34 42 44 44 47 44 38 36 37 35 33 29 26 24 23 22 26 28 31 34 36 33 35 37 37 37 44 44 45 43 44 47 44 47 41 48 48 48 49 56 56
19 17 20 28 37 39 39 36 40 42 31 35 40 32 30 32 31 30 29 24 24 23 23 23 24 26 30 31 32 35 35 40 39 43 41 46 46 48 50 49 54 52 53 53 51 53 53 51 51
14 24 25 33 37 35 33 42 37 44 18 5 26 28 29 29 29 27 25 23 23 20 21 20 20 22 26 29 32 33 35 38 41 41 44 47 48 49 51 53 53 55 54 55 56 57 56 55 52
32 33 35 37 37 36 41 42 42 9 12 25 24 28 26 26 23 21 21 20 19 19 17 16 17 19 23 26 28 30 35 39 40 43 46 46 49 50 54 55 55 56 56 56 58 58 58 56 55
40 42 37 40 41 37 41 44 43 19 19 20 22 25 20 19 18 18 18 16 13 14 13 14 13 17 21 22 25 31 36 39 41 44 45 48 49 52 54 56 57 58 60 60 56 56 54 52 52
47 46 47 23 15 23 35 43 15 18 16 15 14 13 12 11 12 15 16 15 15 11 14 13 13 13 18 22 25 32 37 41 41 43 46 46 48 50 53 54 56 58 60 60 62 62 60 59 57
46 44 42 19 30 34 29 34 19 28 24 13 11 6 8 8 11 11 11 11 11 13 14 12 11 13 19 21 26 33 36 37 43 45 46 49 49 52 55 57 60 63 64 62 64 65 65 66 65
10 44 21 28 22 36 21 7 40 42 31 14 10 5 6 5 7 8 13 14 17 22 18 11 13 18 23 26 29 34 36 37 40 44 48 52 52 57 60 63 65 66 68 68 68 71 70 71 72
35 41 42 30 33 40 29 32 36 37 29 25 20 16 13 10 13 16 20 21 23 24 21 17 20 28 27 29 37 41 43 47 46 47 51 57 59 64 67 68 71 70 72 75 76 76 76 75 73
37 40 33 33 33 37 28 23 28 31 30 30 26 24 21 18 18 20 22 26 28 30 29 28 28 32 34 35 42 43 47 48 50 47 59 60 67 71 72 76 77 74 75 76 76 76 80 79 74
34 40 38 44 38 34 30 19 18 26 28 29 31 31 28 24 23 25 28 29 29 30 30 30 32 36 39 41 44 50 50 51 58 66 70 72 78 75 76 76 76 77 77 78 79 80 82 87 83
41 35 44 41 34 26 10 24 20 17 24 27 29 30 28 27 28 29 30 30 31 32 33 34 37 40 43 46 50 57 59 66 67 68 74 78 79 78 81 80 78 77 77 78 78 78 83 83 91
39 45 40 36 31 40 22 34 21 15 22 27 29 30 30 32 32 33 34 34 34 35 37 40 42 46 48 50 53 60 68 71 76 79 81 78 74 82 82 81 81 81 77 77 78 79 78 80 83
42 39 35 34 31 35 33 39 23 24 29 28 29 32 35 36 34 36 36 36 38 41 43 45 49 51 52 54 61 71 77 77 74 77 81 78 83 84 84 85 81 78 74 75 77 76 78 75 81
45 40 40 37 33 37 33 39 37 31 31 30 31 36 39 39 39 38 39 41 44 46 47 50 55 57 59 66 67 68 70 72 75 80 81 88 89 88 86 83 78 76 74 75 74 72 72 70 73
41 41 37 41 41 41 31 41 32 26 28 31 35 38 38 40 40 41 44 49 50 50 54 58 60 62 63 65 70 71 72 73 77 79 84 86 87 87 82 78 79 80 75 72 69 69 71 71 71
40 39 38 37 38 42 38 33 27 22 27 34 39 43 44 44 44 46 49 53 57 60 58 58 61 64 64 67 71 71 72 76 78 81 81 85 85 83 81 81 78 70 68 69 71 70 71 69 69
43 38 39 40 47 48 37 51 36 23 32 36 44 51 53 48 49 56 58 61 62 63 62 58 62 64 69 69 69 71 74 76 78 80 83 85 82 84 80 77 72 69 67 68 73 75 68 62 57
38 37 41 42 41 43 50 47 42 43 41 49 55 59 60 55 54 59 60 63 61 63 61 63 64 67 71 69 71 72 72 73 76 78 79 83 84 77 76 73 69 68 71 74 67 60 60 56 54
38 40 39 40 40 38 45 53 40 38 45 49 54 57 57 56 53 63 63 62 68 67 66 68 70 72 66 65 69 72 72 74 75 78 81 78 77 76 73 71 72 70 67 63 63 65 66 64 65
Wind_Direction
296 319 310 311 308 307 319 333 3 352 358 359 18 356 4 357 351 346 21 32 51 53 53 44 29 53 53 50 38 35 33 37 37 38 35 21 12 2 357 357 355 352 350 349 344 336 331 328 329
287 311 320 313 300 297 322 345 3 9 23 35 31 22 8 10 17 36 35 41 52 56 56 51 40 40 54 53 55 52 48 40 34 27 19 12 9 7 359 354 355 352 347 345 348 343 338 338 340
303 302 280 317 304 304 318 354 10 28 31 20 17 16 9 20 20 23 48 57 62 58 48 50 48 47 48 47 41 37 37 31 27 26 28 35 32 22 11 12 10 6 7 1 352 344 340 340 346
356 327 312 300 332 352 3 27 45 33 20 19 23 17 16 18 28 55 64 62 63 63 57 55 48 39 34 30 22 23 31 34 39 50 61 55 54 32 20 10 11 11 7 1 359 355 348 339 335
360 298 316 328 349 13 33 42 38 32 22 21 9 20 32 32 49 65 61 64 69 60 63 54 35 33 32 32 30 36 36 31 27 30 26 25 21 16 16 11 3 2 359 355 354 352 350 346 341
321 297 320 331 0 14 21 20 4 18 24 17 31 45 41 65 75 63 69 73 70 67 54 72 76 69 64 63 4 11 11 11 14 15 17 16 13 12 9 6 5 2 357 352 349 348 349 348 345
274 11 5 38 18 19 13 14 16 20 33 27 44 51 60 103 102 120 115 95 92 85 91 90 75 59 56 48 39 28 24 18 16 18 17 19 17 10 8 6 2 358 356 356 355 352 348 345 342
287 328 31 24 13 10 21 24 14 35 24 1 254 52 136 124 122 121 122 109 106 110 93 64 57 53 58 47 38 31 27 26 28 25 23 24 27 21 15 12 1 354 351 346 342 344 345 345 343
322 355 357 349 351 2 33 35 15 256 45 211 206 257 96 114 119 120 125 120 111 107 65 40 40 24 25 30 37 51 46 46 41 36 28 29 24 10 10 358 356 355 353 351 350 344 342 344 349
342 331 359 343 344 27 48 84 34 136 144 177 180 216 85 118 128 127 129 127 120 102 82 59 46 40 39 30 30 34 31 25 19 11 9 11 1 360 356 359 358 358 354 350 350 345 340 340 326
333 338 3 339 302 248 218 220 221 191 181 190 163 142 118 121 131 133 133 124 115 104 89 68 54 34 27 23 24 32 25 20 18 17 6 2 1 2 359 355 355 351 352 347 344 341 338 331 327
347 352 304 257 216 209 210 217 211 208 225 172 150 106 106 123 125 132 134 105 108 99 99 78 53 34 25 26 29 21 24 14 14 7 10 3 1 358 356 354 348 347 345 343 343 340 337 336 332
333 250 247 224 210 218 228 205 221 201 238 302 92 97 110 117 124 124 124 114 103 95 88 69 47 47 38 28 19 19 20 15 10 9 4 1 359 357 355 353 350 346 344 342 340 336 334 333 331
222 218 210 209 212 222 210 207 196 267 85 109 108 130 115 120 104 96 111 108 100 102 82 70 65 49 34 26 22 16 10 6 6 5 2 0 357 354 349 349 348 346 344 342 339 336 334 332 329
209 199 214 213 214 232 212 196 184 23 37 99 127 142 126 116 94 81 98 101 90 73 78 67 55 42 24 22 18 9 6 4 1 358 356 355 353 349 348 345 343 341 340 340 339 336 334 332 331
198 208 194 287 65 324 181 220 67 65 62 111 55 98 110 105 93 74 80 95 103 82 45 41 44 33 20 14 6 359 358 356 355 355 354 356 354 350 347 345 342 340 337 335 333 331 328 326 324
200 190 208 353 295 288 166 275 43 329 267 156 149 85 54 113 115 95 86 67 41 20 8 13 30 13 6 6 357 352 352 353 353 353 353 352 350 348 344 341 338 336 332 331 328 326 323 320 319
254 219 167 264 341 263 209 277 318 321 337 355 360 23 26 96 124 80 12 9 358 353 358 1 9 358 352 352 349 345 347 348 349 348 349 347 346 344 340 336 333 332 328 327 325 322 320 317 315
275 258 263 315 317 295 322 318 328 336 355 3 12 12 21 42 35 11 355 358 360 360 359 359 357 348 346 343 339 339 340 340 342 343 346 343 341 338 335 332 330 328 324 323 321 320 317 315 314
290 283 309 320 320 309 335 348 356 6 6 13 20 21 23 24 24 14 11 3 359 356 356 351 350 346 344 345 342 340 338 339 339 341 339 337 335 332 332 330 328 327 324 323 321 319 316 313 313
315 300 311 302 318 320 327 343 10 15 24 23 16 19 28 24 20 16 9 7 4 360 356 353 349 347 347 344 342 340 339 336 335 331 330 331 331 332 331 330 327 325 323 321 320 319 316 312 311
308 331 316 316 328 341 26 340 341 21 13 15 13 14 15 14 12 5 2 360 358 356 353 349 346 344 344 343 340 337 334 330 329 328 328 328 328 328 329 328 327 325 323 321 320 320 317 314 310
323 318 323 325 325 316 334 320 337 11 0 360 2 1 0 357 355 354 353 351 350 348 344 343 341 338 338 336 335 333 330 328 326 325 326 328 329 328 328 327 325 324 322 321 320 320 319 317 313
325 326 327 329 327 319 320 318 334 340 347 350 357 355 352 350 350 348 347 347 346 345 341 339 337 335 333 332 330 326 324 324 325 327 328 328 328 327 327 326 325 323 322 322 322 320 320 319 317
325 322 318 320 320 320 332 320 322 341 348 351 351 351 349 347 345 344 344 342 339 339 339 337 334 332 332 332 332 333 332 331 329 328 329 328 328 327 327 327 326 324 323 322 323 324 323 323 321
336 331 328 318 320 322 337 324 331 350 354 351 348 347 348 346 346 346 342 337 336 336 334 333 333 332 333 334 333 333 333 332 330 330 329 329 329 329 330 328 326 325 325 324 325 324 323 323 320
346 339 341 335 334 325 328 336 339 350 350 349 345 341 341 342 343 342 342 340 335 334 334 334 333 332 333 333 332 333 333 332 331 330 330 330 332 332 331 328 327 328 328 327 326 324 322 320 319
350 360 347 343 325 323 334 328 338 346 337 342 336 339 336 335 336 335 335 336 338 337 336 336 335 333 332 333 334 333 332 332 332 333 332 333 333 333 332 331 330 330 329 327 324 321 320 321 321
9 4 350 341 338 332 325 329 333 331 334 332 331 333 334 335 335 335 338 337 338 339 337 337 337 337 335 333 334 334 335 336 335 335 335 334 332 333 334 333 331 328 326 325 326 326 324 323 321
12 4 358 349 346 341 331 326 343 344 335 334 335 337 339 337 339 337 340 341 339 337 338 337 336 334 337 337 336 335 336 336 335 335 334 334 334 334 334 333 330 329 330 330 328 326 324 321 317